COSMOS 1275 DEB, 13801

Orbit data source: Space-Track

COSMOS 1275 DEB, 13801 is space debris in LEO originally from a launch on Thu, 04 Jun 1981 UTC launched from the Plesetsk Missile And Space Complex (PKMTR). Debris objects in space refer to the collection of defunct objects orbiting the Earth. Examples of debris include non-operational satellites, rocket bodies, and fragments generated from explosions, collisions, or faulty payload assembly.

Loading next visibility...
Identifier
13801, 1981-053GV
Orbit
LEO
Country
Flag of CISCIS
Related business
Manufacturer
Unknown
Mission
Spacecraft
Bus & Motor
Unknown
Mass
Unknown
Launch date (UTC)
1981-06-04 (45 years ago)
Launch vehicle
Unknown
Launch site
Plesetsk Missile And Space Complex (PKMTR)
Object type
Payload
Rocket body
Debris
Shape & HBR
Unknown shape, 0.1 m
Radar Cross Section
Small (<0.1 m²)

Expand to show TLE details & history
Last TLE update: 15 hours ago

TLE from 15 hours ago
0 COSMOS 1275 DEB
1 13801U 81053GV  25355.11008730  .00002517  00000-0  11649-2 0  9998
2 13801  82.7966 129.7191 0045758 126.5348 234.0059 14.19960061194319
Epoch: 2025-12-21T02:38Z
TLE epoch observation values (Epoch: 2025-12-21T02:38:31.542Z)
Latitude
-0.00009°
Longitude
0.16042°
Altitude
847.921 km
Speed
7.419 km/s
True Right ascension
08h 38m 52s
True Declination
0° 00' 00"
Sunlit
Object was in full shadow at epoch
Visualization orbit readout
Latitude
Unknown
Longitude
Unknown
Altitude
Unknown
Speed
Unknown
Apparent Right ascension
Unknown
Apparent Declination
Unknown
Sunlit
N/A
Visualization observer readout
Local Sidereal Time
16:15:26
Azimuth
Unknown
Elevation
Unknown
Doppler factor
Unknown
Orbital elements
Apogee altitude
855.529 km
Perigee altitude
789.631 km
Semi-major axis
7,200.717 km
Eccentricity
0.00458
Inclination
82.7966°
RAAN
129.7191°
Arg. of periapsis
126.5348°
True anomaly
233.58309°
Mean anomaly
234.0059°
Eccentric anomaly
233.79435°
Mean motion
3.55205 °/min
Orbital period
101.35 mins
BSTAR
0.0011649
Loading maneuver chart data...
Computing Atmospheric mass density...
Loading historical data...
Loading historical data...
Loading historical data...
Loading historical data...
Loading historical data...
Loading historical data...
Loading historical data...

Documentation

Showing up to 5 results
|